[[{"header":{"parameterUnit":"m.s-1","parameterCategory":1,"la1":30.2992,"la2":30.254,"lo1":-89.0895,"lo2":-89.0443,"dy":0.0025,"dx":0.0025,"nx":19,"ny":19,"refTime":"2026-05-22T03:00:00:Z","depth":0,"parameterNumber":2,"parameterNumberName":"U-component_of_WINDS"},"data":[0,0,0,-2.1561,-2.1562,-2.1608,-2.1608,-2.1669,-2.167,0,0,0,0,0,0,0,0,0,0,0,-2.1549,-2.1549,-2.1561,-2.1562,-2.1608,-2.1608,-2.1669,-2.167,0,0,0,0,0,0,0,0,0,0,0,-2.1549,-2.1549,-2.155,-2.1563,-2.1608,-2.1608,-2.1669,-2.1634,0,0,0,0,0,0,0,0,0,0,-2.1589,-2.1578,-2.1549,-2.155,-2.1563,-2.1608,-2.1608,-2.1632,-2.1636,-2.1649,0,-2.1661,0,-2.1667,-2.1674,-2.1674,0,0,0,-2.1561,-2.1575,-2.1586,-2.155,-2.1563,-2.1608,-2.1587,-2.1634,-2.1638,-2.1655,-2.1662,-2.1664,-2.1668,-2.1674,-2.1675,-2.1756,-2.1757,0,0,-2.1559,-2.1557,-2.1583,-2.1589,-2.1582,-2.1586,-2.1588,-2.1637,-2.1645,-2.1662,-2.1666,-2.1669,-2.1675,-2.1675,-2.1756,-2.1756,0,0,0,-2.1552,-2.1556,-2.1566,-2.1587,-2.1595,-2.1587,-2.159,-2.1643,-2.1646,-2.1667,-2.1669,-2.1675,-2.1676,-2.1755,-2.1756,-2.1774,0,0,0,-2.1551,-2.1552,-2.1565,-2.1564,-2.1594,-2.1619,-2.1595,-2.1643,-2.1648,-2.1669,-2.1675,-2.1676,-2.1755,-2.1756,-2.1773,-2.1782,0,0,0,-2.1545,-2.1551,-2.1558,-2.1564,-2.1584,-2.1618,-2.1625,-2.1644,-2.165,-2.1674,-2.1677,-2.1755,-2.1756,-2.1771,-2.178,-2.1803,0,0,0,-2.1539,-2.1573,-2.1558,-2.1598,-2.1583,-2.163,-2.1624,-2.1659,-2.1682,-2.1675,-2.1755,-2.1756,-2.1771,-2.1779,-2.1802,-2.1821,-2.1829,0,0,-2.1581,-2.1578,-2.1602,-2.159,-2.1639,-2.1623,-2.1675,-2.1697,-2.1701,-2.1738,-2.174,-2.1773,-2.178,-2.1803,-2.1879,-2.1885,0,0,0,-2.1615,-2.1632,-2.1645,-2.1667,-2.1686,-2.1703,-2.1718,-2.1726,-2.1758,-2.172,-2.1789,-2.1793,-2.1806,-2.1815,-2.1821,-2.1832,-2.1761,-2.176,-2.176,-2.167,-2.1675,-2.1714,-2.1724,-2.1746,-2.1763,-2.1781,-2.1795,-2.1793,-2.1809,-2.1819,-2.1864,-2.1875,-2.1879,-2.1891,-2.1831,-2.1831,-2.1831,-2.1831,-2.1731,-2.1755,-2.1753,-2.179,-2.1796,-2.1827,-2.1846,-2.1843,-2.1874,-2.1857,-2.1869,-2.1848,-2.1886,-2.1897,-2.1833,-2.1833,-2.1832,-2.1832,-2.1832,-2.1766,-2.1779,-2.179,-2.1823,-2.1849,-2.186,-2.1889,-2.1893,-2.1897,-2.1909,-2.192,-2.192,-2.1919,-2.1914,-2.1915,-2.1915,-2.1915,-2.1915,-2.1915,-2.1797,-2.181,-2.1834,-2.1859,-2.1874,-2.1896,-2.1915,-2.193,-2.1949,-2.1949,-2.1949,-2.1945,-2.189,-2.1875,-2.1918,-2.1917,-2.1917,-2.1917,-2.1916,-2.1854,-2.1843,-2.188,-2.1896,-2.1927,-2.1952,-2.1958,-2.199,-2.2004,-2.2019,-2.2014,-2.1973,-2.1969,-2.1965,-2.1953,-2.2013,-2.2013,-2.2013,-2.2013,-2.1883,-2.1883,-2.1923,-2.1948,-2.1973,-2.1983,-2.2027,-2.2043,-2.2058,-2.2067,-2.206,-2.2045,-2.204,-2.204,-2.2034,-2.2022,-2.2098,-2.2098,-2.2099,-2.1918,-2.1921,-2.1956,-2.1971,-2.1996,-2.2017,-2.2058,-2.2088,-2.2103,-2.2102,-2.2074,-2.2071,-2.2046,-2.2038,-2.2033,-2.2024,-2.2002,0,0]},{"header":{"parameterUnit":"m.s-1","parameterCategory":1,"la1":30.2992,"la2":30.254,"lo1":-89.0895,"lo2":-89.0443,"dy":0.0025,"dx":0.0025,"nx":19,"ny":19,"refTime":"2026-05-22T03:00:00:Z","depth":0,"parameterNumber":3,"parameterNumberName":"V-component_of_WINDS"},"data":[0,0,0,4.451,4.4513,4.4678,4.4679,4.486,4.4861,0,0,0,0,0,0,0,0,0,0,0,4.4446,4.4447,4.451,4.4513,4.4678,4.4679,4.4859,4.4861,0,0,0,0,0,0,0,0,0,0,0,4.4446,4.4447,4.4448,4.4514,4.4678,4.4679,4.4859,4.4745,0,0,0,0,0,0,0,0,0,0,4.4589,4.4517,4.4447,4.4448,4.4515,4.4678,4.4679,4.4739,4.4752,4.4773,0,4.4791,0,4.4829,4.4871,4.4872,0,0,0,4.4524,4.4506,4.4565,4.4448,4.4516,4.4677,4.4607,4.4747,4.476,4.4789,4.4794,4.4801,4.4832,4.4872,4.4873,4.4971,4.4971,0,0,4.4515,4.4467,4.4555,4.4573,4.4549,4.4601,4.4612,4.4755,4.4756,4.4795,4.4806,4.4835,4.4874,4.4875,4.4971,4.4971,0,0,0,4.4482,4.446,4.4516,4.4565,4.4597,4.4606,4.4618,4.475,4.4772,4.4808,4.4837,4.4874,4.4876,4.4971,4.4971,4.4926,0,0,0,4.4477,4.4441,4.4511,4.4483,4.4594,4.4676,4.4608,4.4762,4.478,4.4836,4.4874,4.4878,4.4971,4.4971,4.4927,4.4912,0,0,0,4.444,4.4437,4.4456,4.4481,4.455,4.4675,4.4706,4.4767,4.4797,4.4872,4.4878,4.4971,4.4971,4.4928,4.4914,4.4925,0,0,0,4.4387,4.4411,4.4455,4.4492,4.4549,4.4647,4.4706,4.478,4.4839,4.4875,4.4971,4.4971,4.4929,4.4916,4.4926,4.4926,4.4921,0,0,4.4391,4.441,4.4436,4.448,4.4559,4.4625,4.4696,4.4794,4.4842,4.4924,4.4927,4.4927,4.4914,4.4925,4.4911,4.4908,0,0,0,4.4421,4.444,4.4471,4.4527,4.4603,4.4667,4.4759,4.4795,4.4868,4.4876,4.4934,4.4928,4.4936,4.4939,4.4935,4.4945,4.497,4.497,4.497,4.4358,4.4422,4.4469,4.4553,4.4605,4.4701,4.4749,4.4813,4.4859,4.4871,4.4897,4.4881,4.4882,4.488,4.489,4.4901,4.4901,4.4901,4.4901,4.437,4.4406,4.447,4.4539,4.4604,4.4661,4.4753,4.4784,4.4845,4.4867,4.4878,4.4897,4.4874,4.4886,4.4898,4.4898,4.4899,4.4899,4.4899,4.4337,4.4366,4.4411,4.4498,4.4558,4.464,4.4697,4.4754,4.4807,4.4817,4.485,4.4851,4.4859,4.4829,4.4829,4.4829,4.4829,4.4829,4.4829,4.4285,4.4337,4.438,4.4464,4.4508,4.4572,4.4667,4.471,4.4772,4.4809,4.481,4.4854,4.486,4.4861,4.4828,4.4828,4.4828,4.4828,4.4828,4.4275,4.4287,4.4352,4.4396,4.45,4.4554,4.4627,4.471,4.4753,4.4779,4.4822,4.4817,4.484,4.4843,4.4844,4.4809,4.4809,4.4809,4.4809,4.4247,4.4265,4.4346,4.4412,4.4483,4.4555,4.4625,4.4698,4.4775,4.4806,4.4819,4.4825,4.4825,4.4847,4.485,4.4852,4.482,4.482,4.482,4.4245,4.4272,4.4323,4.4402,4.4486,4.4557,4.4624,4.4695,4.4784,4.4822,4.4831,4.483,4.484,4.484,4.4878,4.4882,4.4886,0,0]}]]